GFSWCAN_500_spd_024.txt.gz
Wind_Speed
51 56 48 46 45 43 43 41 38 37 37 36 33 31 30 29 25 20 21 21 19 14 11 16 17 16 15 20 20 22 21 20 16 12 12 30 30 31 39 69 69 66 77 71 64 49 55 68 65 55 56 52 56 55
50 52 45 45 40 40 41 43 42 40 38 36 34 32 29 26 25 21 20 21 19 12 10 12 11 13 13 19 16 17 16 15 15 19 15 15 32 34 38 53 59 48 62 77 56 45 55 62 42 41 53 55 54 59
47 49 45 42 40 42 46 46 44 44 43 40 39 35 32 30 27 23 20 19 18 10 9 9 8 6 8 12 5 9 13 13 24 18 12 12 13 17 28 44 57 50 63 68 52 38 56 69 70 40 57 60 56 59
44 46 43 40 40 44 44 42 41 41 36 36 37 38 38 34 27 27 27 25 21 12 11 6 2 4 1 1 9 8 7 14 19 18 19 9 3 5 25 28 38 54 49 63 53 38 59 65 58 67 60 63 65 65
40 41 40 38 39 41 41 38 42 42 40 35 32 30 28 27 28 28 29 29 27 23 20 17 18 15 10 8 7 9 17 23 17 12 10 6 8 19 20 25 29 46 34 66 53 47 54 62 65 59 56 59 67 69
35 34 38 37 35 35 36 37 40 40 40 40 43 39 32 28 27 25 22 22 24 21 21 19 15 14 15 13 15 12 20 19 7 6 12 13 11 10 19 26 23 37 25 55 55 45 49 46 48 50 55 59 57 55
32 31 33 33 32 29 31 30 38 39 40 42 44 41 38 27 27 27 22 18 17 18 15 17 18 14 10 8 6 5 3 7 2 15 13 13 17 19 21 29 12 34 33 58 35 37 53 48 46 42 55 54 55 56
30 31 32 30 28 23 24 27 32 35 38 41 48 45 32 38 35 22 21 21 20 22 22 18 14 13 15 14 17 14 19 19 19 20 15 11 17 14 19 24 23 21 31 53 35 30 45 44 50 28 34 58 57 53
31 31 30 28 26 25 19 22 26 26 32 36 41 45 27 40 58 37 29 34 35 35 26 19 25 12 9 14 20 22 19 22 17 18 16 7 11 12 17 17 22 18 29 43 45 37 42 41 43 42 44 32 40 43
29 29 30 30 26 24 19 19 20 20 29 32 38 40 27 26 43 52 44 41 42 35 26 29 25 22 17 19 16 17 17 26 19 14 17 16 9 21 24 18 19 23 29 33 32 30 34 33 40 46 50 45 33 43
30 30 28 27 27 25 21 18 18 20 24 30 32 37 23 33 36 55 52 50 35 30 32 20 17 19 19 22 25 27 25 24 21 20 19 13 16 22 5 14 27 20 24 29 40 46 46 43 36 33 40 34 29 25
28 31 29 27 26 25 22 17 16 18 21 26 28 28 23 36 42 50 48 45 31 30 32 21 23 17 17 22 24 22 21 19 19 21 17 17 10 5 17 19 21 21 25 22 20 21 18 17 22 28 22 18 18 19
26 29 30 26 26 25 23 21 17 18 18 18 24 23 22 39 45 47 37 29 28 27 23 18 25 26 29 35 33 36 42 42 37 35 32 27 26 25 15 17 13 17 20 17 14 18 13 12 17 12 11 15 15 20
23 27 29 26 28 27 24 19 15 13 15 15 16 22 27 37 43 34 28 26 28 22 23 23 25 34 38 44 43 42 39 39 37 36 31 25 23 21 20 23 24 23 16 11 5 6 11 13 19 17 10 10 12 12
23 27 27 25 27 27 23 20 13 9 14 9 15 24 33 34 33 31 28 26 26 27 25 25 33 35 38 41 39 36 34 34 32 30 26 24 21 21 20 13 10 11 9 5 3 5 5 6 9 5 5 8 9 10
24 28 27 23 23 28 29 27 22 16 15 10 19 21 24 25 25 27 29 33 32 34 27 28 34 33 34 35 32 32 31 29 24 24 27 23 23 18 21 23 17 12 8 4 6 3 2 4 4 6 11 9 9 10
25 27 28 25 24 25 30 27 17 15 15 20 23 21 20 21 24 28 25 30 35 25 21 21 30 34 31 30 30 27 25 22 18 16 14 13 11 11 12 14 13 14 14 12 7 3 3 6 8 12 14 13 12 12
22 25 26 27 26 26 27 24 22 22 21 20 17 18 17 18 21 23 22 21 19 21 20 22 24 23 26 29 25 21 15 11 9 12 11 9 8 6 6 7 8 10 11 10 9 9 8 4 3 7 12 13 15 17
19 21 22 23 23 27 25 33 31 34 31 26 27 25 20 19 18 19 17 15 15 16 15 9 7 13 16 15 14 11 10 7 6 6 8 9 9 9 9 9 8 8 6 6 8 10 11 10 10 10 12 14 16 17
17 21 22 23 23 21 22 26 26 28 26 29 30 26 23 22 24 22 20 20 21 16 9 5 5 10 8 5 1 4 7 8 10 12 13 12 12 12 11 10 11 11 10 10 10 14 16 17 18 20 20 21 20 21
14 15 17 20 18 15 15 18 20 23 23 20 20 21 20 22 20 18 16 17 14 11 11 11 12 11 11 10 8 7 7 9 11 12 13 14 16 18 15 13 13 14 13 12 12 15 17 17 17 18 19 21 21 23
13 12 15 17 15 12 13 16 18 18 17 19 20 19 18 21 23 21 19 17 16 17 17 15 14 13 14 14 16 17 17 18 17 16 16 17 17 18 20 21 20 20 21 19 15 14 16 16 16 17 17 19 20 22
11 11 11 12 12 13 15 16 16 16 16 17 21 14 16 17 21 22 22 18 15 15 12 11 11 12 12 14 16 17 19 21 23 26 26 25 26 27 27 28 29 29 29 29 29 28 28 29 30 31 30 29 29 29
10 11 12 11 8 9 11 12 13 14 17 19 20 20 19 22 19 21 22 22 21 20 18 17 17 19 20 19 21 23 26 27 27 28 30 32 32 32 33 35 37 40 42 43 43 42 40 40 40 40 39 39 39 39
9 9 11 9 11 13 13 14 17 19 20 20 21 22 22 22 22 22 22 23 24 25 26 28 28 28 29 28 25 25 28 31 31 32 33 33 33 34 36 39 41 44 46 48 50 49 47 46 45 43 42 41 39 39
8 6 6 13 11 14 17 19 19 21 22 23 23 23 24 25 27 29 30 31 29 27 27 26 26 27 26 25 24 22 22 23 21 20 22 24 26 27 28 28 30 33 34 36 40 42 42 42 42 41 40 41 42 43
14 13 11 11 11 14 18 20 22 23 23 25 26 28 29 29 30 32 32 30 27 26 25 26 27 26 24 23 20 19 23 23 22 21 21 23 24 25 25 26 27 29 30 28 27 28 30 31 32 33 35 37 38 40
9 11 11 11 11 13 15 17 18 17 21 24 26 28 30 31 33 33 32 30 29 28 26 26 27 28 27 26 23 23 24 23 23 24 23 22 22 23 23 23 23 23 21 20 20 19 19 19 20 20 21 23 25 26
8 9 10 10 12 14 14 15 17 20 23 25 26 28 28 30 34 34 32 32 33 31 27 27 28 30 29 27 26 25 25 24 24 24 25 26 26 26 26 25 25 24 23 21 21 21 20 20 21 23 24 26 27 28
13 13 12 13 13 13 14 15 18 20 22 25 25 27 26 27 30 34 36 35 33 33 31 28 28 28 29 28 25 26 26 25 25 24 24 24 24 25 25 25 25 26 26 25 24 25 24 24 25 25 26 26 26 27
12 13 15 16 15 14 14 14 16 18 19 21 24 29 30 31 31 33 34 35 34 33 32 32 30 29 28 28 29 28 26 26 26 26 25 25 25 25 25 24 24 23 23 23 23 23 23 23 24 24 24 24 24 24
13 15 16 18 19 19 19 18 18 19 21 25 28 30 32 32 32 31 33 37 38 37 33 33 32 32 31 29 28 28 29 29 29 30 30 29 27 26 26 26 26 25 24 24 23 22 22 22 22 22 22 22 23 22
14 15 16 18 20 21 21 21 21 21 22 24 27 30 32 33 35 35 34 36 37 36 34 34 34 34 33 32 30 30 30 30 30 30 30 31 31 30 28 27 26 25 24 23 23 22 21 21 21 21 21 21 20 19

GFSWCAN_500_spd_027.txt.gz
Wind_Speed
43 42 45 42 42 46 47 50 50 51 46 43 43 43 41 35 32 30 26 22 20 15 14 16 15 14 12 13 10 15 16 18 18 18 20 18 15 26 36 54 64 73 59 89 90 85 83 71 59 56 55 63 64 60
39 37 41 40 39 43 45 48 50 51 50 46 43 40 40 38 34 28 27 26 22 18 16 15 8 6 8 12 10 10 12 19 21 16 12 10 12 17 20 30 36 56 62 68 78 89 81 64 49 53 42 45 55 59
37 35 37 39 36 38 39 44 47 48 50 47 43 43 38 32 30 30 26 27 27 22 17 14 9 1 5 2 1 4 9 8 11 18 5 12 16 19 22 22 35 35 47 55 53 50 86 54 51 58 48 43 38 54
36 35 34 35 31 33 35 40 44 44 48 55 46 37 34 35 32 30 29 26 26 23 21 19 16 13 14 10 7 5 6 8 16 12 12 6 13 12 16 18 30 38 41 48 47 45 57 60 55 56 63 60 56 48
34 36 35 34 29 26 32 35 40 41 47 52 50 41 45 27 27 27 24 18 18 18 17 17 17 15 12 7 6 3 12 12 7 5 10 13 10 8 13 20 17 35 38 44 41 52 44 57 56 64 56 63 63 64
34 34 34 33 32 25 27 33 34 37 44 49 50 44 41 37 28 23 19 20 11 15 15 16 15 17 19 12 12 10 14 10 2 6 6 7 12 1 11 14 15 28 33 35 44 50 41 57 30 64 55 56 57 58
33 32 34 31 30 28 25 29 31 34 39 46 50 45 45 48 26 26 24 19 18 17 16 19 17 17 16 14 9 5 3 2 3 1 7 9 6 11 12 6 16 26 27 35 51 55 57 41 73 32 56 52 57 61
31 33 32 30 29 28 26 24 26 30 33 42 40 37 45 43 38 32 29 29 27 19 20 22 23 17 18 19 19 17 11 12 13 12 13 9 16 18 16 20 21 28 32 30 55 64 70 37 16 31 59 54 52 49
29 32 33 30 28 25 24 22 22 23 29 35 35 36 35 31 39 35 38 40 41 33 32 25 25 23 22 24 23 18 18 14 18 17 15 10 21 24 13 14 15 31 29 30 54 43 42 54 36 36 45 40 39 43
27 31 33 29 28 26 24 21 18 20 24 30 31 30 33 30 29 31 31 38 45 34 23 22 22 24 22 23 22 21 18 18 15 13 8 4 5 13 13 12 30 22 24 40 55 24 19 39 42 45 35 20 27 37
26 29 32 29 28 26 24 20 14 15 20 24 27 28 29 28 35 32 32 35 32 28 25 21 22 23 23 22 22 19 14 14 15 13 12 12 5 5 9 6 21 30 19 38 51 31 18 18 31 27 31 34 39 31
26 28 31 28 28 25 24 18 12 9 14 20 24 23 20 28 31 34 32 32 27 28 22 23 25 25 20 20 22 23 30 33 33 17 16 15 7 5 8 20 16 23 13 23 37 33 34 28 24 24 28 33 30 28
27 29 28 27 27 27 22 16 9 10 8 18 22 18 29 35 36 35 31 28 22 23 26 26 28 32 37 38 38 39 37 38 34 34 28 29 34 28 24 27 24 21 20 18 16 12 10 12 17 24 30 24 20 22
27 28 27 27 29 30 23 13 11 11 11 17 17 22 37 38 37 26 25 25 20 24 28 32 32 30 37 36 39 35 33 35 35 35 31 22 16 25 26 28 24 20 19 15 18 19 15 15 14 15 17 11 19 18
28 29 27 27 29 30 19 15 11 12 14 11 21 32 34 36 35 36 32 24 21 22 27 28 29 28 29 34 33 38 38 38 37 33 31 31 29 24 18 18 20 22 19 16 12 12 11 11 16 14 13 14 15 15
25 27 28 29 28 26 23 19 18 20 12 18 28 27 28 26 29 27 32 30 27 27 22 19 21 25 25 27 29 33 34 35 26 20 21 24 26 27 27 23 19 14 10 9 9 7 9 10 10 10 6 9 9 10
20 21 26 28 29 27 25 23 18 10 12 18 22 20 24 22 19 21 25 28 28 23 23 14 11 20 21 21 24 26 22 17 16 18 21 19 19 20 19 19 19 19 19 17 13 7 4 1 3 6 11 14 13 12
17 18 20 23 27 32 32 25 16 15 20 21 19 21 20 22 20 18 17 17 18 17 17 16 15 14 16 18 19 18 15 13 13 13 13 13 13 13 14 15 15 15 14 13 12 10 9 9 8 5 4 6 8 9
16 15 16 19 22 26 22 22 22 24 23 21 22 19 16 14 16 16 15 14 15 19 19 17 14 10 8 9 8 8 8 9 11 14 15 16 14 12 11 11 12 13 13 12 11 11 11 10 10 12 13 13 12 12
15 15 16 17 20 22 19 19 19 21 22 21 23 23 22 19 19 19 19 18 18 17 15 11 8 7 8 8 9 9 9 9 8 9 11 11 10 11 11 11 11 12 14 16 16 14 15 15 16 17 17 19 21 22
14 15 15 15 18 18 17 17 17 18 18 20 20 18 20 19 18 16 17 17 13 10 10 11 11 9 7 7 8 10 11 11 12 12 12 13 13 14 14 13 13 13 14 17 20 20 19 20 21 21 22 23 23 23
15 15 14 13 14 14 15 15 16 17 16 17 19 17 20 20 17 19 21 20 18 19 18 17 17 15 15 16 17 18 19 18 18 19 21 22 22 22 22 22 22 22 22 23 25 27 28 27 26 27 28 28 27 27
12 14 16 19 15 12 14 18 20 17 16 19 20 21 21 22 22 22 24 24 24 23 20 18 14 15 21 24 25 25 25 26 28 28 27 26 26 28 29 30 31 32 32 33 34 35 36 37 37 38 38 38 36 36
8 13 14 11 13 13 14 14 15 19 21 22 24 24 24 25 25 25 27 28 26 24 23 21 22 21 21 22 25 28 30 30 29 27 28 29 30 31 32 33 32 32 33 34 35 36 38 41 43 45 46 47 47 47
4 6 8 7 8 11 12 14 17 19 21 24 26 28 29 31 31 31 30 29 26 24 22 21 20 19 20 21 22 21 20 18 17 18 20 21 23 25 26 27 27 28 29 30 31 33 35 38 39 40 41 42 44 45
8 4 4 5 7 9 10 12 14 17 19 22 24 25 26 29 32 32 32 30 30 28 25 22 21 22 24 24 24 23 21 19 19 20 21 21 21 22 22 23 23 23 24 25 28 29 31 31 32 33 32 30 31 34
5 4 5 4 5 7 9 11 14 18 22 24 25 28 29 29 30 32 33 33 31 29 28 26 25 24 25 25 24 22 22 20 18 19 21 22 22 22 22 21 22 22 23 25 26 27 28 27 27 26 25 24 22 22
3 5 5 6 7 8 10 13 16 18 20 23 26 29 32 32 32 32 32 32 33 32 30 28 27 26 26 28 28 25 24 24 24 23 21 21 22 23 24 24 24 23 23 25 25 25 25 26 27 26 25 24 24 24
6 6 8 10 11 13 15 17 19 20 22 25 26 28 30 31 32 34 34 33 33 34 32 30 30 29 28 27 28 28 29 29 28 28 27 28 27 27 26 26 26 26 27 27 28 27 26 26 26 26 26 25 25 25
7 9 11 13 15 15 16 18 19 21 21 22 24 25 25 26 29 34 36 35 34 33 30 30 31 30 30 30 30 29 29 28 28 28 28 28 28 29 29 28 28 27 26 26 26 26 26 26 26 24 23 22 22 23
10 11 11 12 14 15 16 15 16 16 18 20 23 26 29 30 31 34 37 36 35 34 33 33 33 34 32 31 31 31 30 30 30 30 30 30 29 29 29 28 27 27 27 26 26 25 24 24 23 23 22 22 22 22
13 13 13 14 15 16 17 15 14 15 18 20 24 28 31 31 32 34 36 37 36 37 36 35 35 36 35 34 34 33 34 34 35 35 35 34 32 31 29 28 27 26 25 25 25 25 25 23 22 21 22 22 22 22
14 15 16 17 18 19 20 20 20 20 21 23 25 29 32 33 32 33 36 38 38 37 36 36 37 38 38 37 37 38 39 39 39 38 36 34 32 30 28 26 25 24 24 24 23 22 21 21 21 21 21 21 20 20

GFSWCAN_500_spd_030.txt.gz
Wind_Speed
41 39 41 39 39 30 33 38 44 50 53 58 54 48 41 39 42 43 44 39 33 25 22 17 9 5 5 6 7 8 6 8 11 13 15 18 21 26 35 40 56 74 85 98 99 99 104 94 90 87 84 77 71 69
39 38 38 39 38 30 29 34 40 47 47 52 59 45 42 38 35 36 38 34 33 30 23 17 8 2 3 4 3 3 4 5 5 8 9 12 11 13 11 15 33 54 76 86 96 109 97 93 88 84 84 82 77 71
37 37 38 37 36 33 28 30 37 42 47 52 56 53 49 34 33 32 34 31 27 26 25 18 17 10 6 3 3 3 5 7 7 3 8 9 9 8 9 7 19 33 46 66 80 97 101 99 85 80 79 72 74 66
34 35 36 37 37 36 32 28 32 37 42 49 55 55 49 32 31 31 28 32 27 24 22 20 16 14 13 11 6 6 5 4 2 5 3 2 4 4 9 12 16 24 39 46 58 75 89 94 91 71 65 57 45 37
31 34 36 37 37 34 32 26 26 32 38 45 48 51 39 30 31 31 29 27 28 25 23 21 20 17 10 13 15 17 11 9 5 1 5 6 10 14 13 19 13 30 36 43 41 46 63 70 67 79 46 41 42 40
31 32 36 37 36 36 34 27 22 29 34 39 44 46 39 32 38 39 30 24 25 24 23 20 14 15 18 16 17 16 11 11 8 7 11 14 14 15 12 7 18 23 35 40 45 46 41 53 53 47 73 49 46 45
29 31 35 37 37 33 34 30 20 25 31 35 39 41 40 29 33 39 31 23 20 22 22 19 20 12 9 9 10 10 9 6 10 14 19 15 10 14 12 25 19 24 23 37 44 49 51 47 51 50 51 55 51 52
30 32 34 35 36 30 31 31 19 19 26 32 35 40 36 26 26 26 30 30 32 28 27 25 24 20 20 18 13 12 14 19 20 21 24 26 29 31 32 15 10 10 29 41 48 47 35 32 60 56 52 56 52 56
32 31 32 33 33 31 26 25 17 14 22 28 33 35 31 21 21 23 30 33 31 27 24 24 23 20 19 17 14 18 18 16 19 21 24 25 27 29 28 11 17 25 28 36 40 39 29 34 58 60 51 54 59 54
31 30 31 31 28 28 27 22 11 9 18 25 30 33 27 19 22 18 31 31 26 23 20 20 19 18 15 16 20 19 17 21 21 22 22 21 23 23 18 21 23 23 22 25 37 39 38 38 43 55 52 42 59 34
31 32 30 27 26 28 24 19 10 7 16 23 28 27 18 17 24 24 26 24 24 24 20 21 18 15 13 14 19 28 32 42 37 32 30 26 25 27 26 23 16 18 23 13 17 34 42 36 45 39 38 48 23 35
32 31 28 26 29 29 21 13 6 10 14 23 22 16 17 27 31 29 30 29 28 24 20 19 21 24 23 24 30 34 34 32 39 40 40 41 32 27 25 32 22 13 16 28 24 12 15 12 16 34 33 36 34 18
30 29 30 30 29 26 18 12 9 10 12 23 15 17 28 33 31 31 29 26 29 27 27 26 29 31 33 32 36 38 41 40 39 40 35 35 33 32 24 22 22 16 10 15 8 6 9 9 6 18 21 19 18 24
26 29 32 30 25 22 18 11 14 19 21 12 11 27 34 37 31 24 25 25 25 27 29 27 26 24 29 35 36 35 39 40 37 39 39 25 23 21 23 28 27 22 25 32 29 14 8 5 9 12 20 25 26 26
23 26 32 33 24 18 16 14 20 21 19 8 19 29 28 32 28 25 13 15 22 22 21 20 23 27 26 30 28 30 34 35 30 29 25 23 30 27 22 22 27 30 29 28 27 23 13 11 11 12 11 18 23 25
18 24 28 33 29 23 15 17 22 24 15 19 23 24 25 22 23 22 22 24 27 31 20 14 14 16 17 20 21 28 28 28 23 22 23 17 24 27 30 29 28 23 18 16 19 17 18 18 16 11 11 13 15 17
17 21 23 26 29 27 29 27 22 15 16 17 18 18 19 15 14 15 16 17 23 22 18 19 17 18 15 15 16 17 19 18 18 18 18 18 18 19 19 19 19 20 21 19 15 11 10 11 12 10 10 11 13 13
18 19 19 19 20 23 24 21 22 23 25 23 19 20 21 21 19 17 17 16 15 14 16 18 19 17 18 14 13 13 12 12 12 13 12 12 12 14 15 16 16 15 13 10 10 10 8 8 7 5 2 6 10 13
16 17 16 16 17 19 19 15 17 17 19 20 20 20 19 18 17 18 21 21 20 17 16 18 19 17 14 11 11 12 12 13 12 11 12 12 12 12 12 12 12 12 11 11 10 9 9 10 11 11 11 12 12 12
14 14 14 14 12 17 17 16 17 18 20 21 16 19 22 19 16 17 21 22 18 16 15 16 18 17 15 14 12 12 13 12 12 12 10 9 9 9 10 11 12 13 15 14 13 14 14 14 15 16 18 20 21 21
13 15 14 13 12 14 17 17 17 16 17 18 20 20 20 20 20 19 20 22 21 21 22 21 21 20 19 18 17 17 18 19 19 18 17 17 18 19 20 21 20 20 19 20 20 21 20 20 20 21 22 23 24 26
11 13 16 14 12 15 15 16 18 19 19 22 24 24 25 25 25 24 22 22 22 21 22 22 22 24 25 25 24 22 22 23 24 24 24 24 25 26 28 29 30 30 30 29 27 28 29 31 32 33 34 34 35 35
9 10 9 13 16 15 15 17 19 21 23 23 24 24 25 27 28 28 27 26 26 24 22 19 19 19 20 22 23 23 23 22 22 24 28 31 32 31 30 30 29 29 29 29 29 29 30 31 33 34 35 37 40 44
6 9 8 10 11 11 13 14 15 17 20 21 23 24 25 26 28 29 29 29 28 28 26 24 23 24 23 24 23 23 22 23 24 23 22 21 21 22 23 25 25 26 24 24 24 25 25 25 26 26 28 30 32 34
4 6 6 9 8 8 9 12 15 18 20 21 23 26 27 27 27 29 30 31 30 29 28 27 26 25 25 25 25 24 23 24 25 24 24 24 25 25 24 24 25 26 26 26 27 26 26 25 26 28 30 31 32 32
9 7 7 9 9 10 11 13 16 18 20 22 24 26 28 28 29 31 32 32 31 31 30 28 26 25 25 25 25 24 23 23 22 22 21 22 23 25 26 27 27 26 26 27 27 28 28 28 29 30 31 31 31 30
8 8 8 11 12 14 15 17 18 19 20 22 24 26 29 31 32 33 34 34 33 33 32 28 26 25 25 26 26 24 24 23 22 22 22 22 22 22 22 22 23 25 26 27 28 30 30 31 31 30 30 30 30 29
8 9 9 11 13 15 17 17 17 18 21 21 23 26 30 33 34 34 34 33 32 32 31 28 27 29 30 30 28 27 26 25 25 24 23 23 23 24 24 23 23 24 25 26 26 27 28 29 29 30 30 30 30 30
7 10 11 13 14 15 16 19 19 21 22 22 24 26 28 30 32 33 33 33 33 32 31 30 27 28 30 32 31 31 30 29 29 29 30 30 30 29 28 27 27 27 27 27 28 27 27 28 28 28 28 28 28 28
11 14 15 15 16 17 18 19 19 21 21 23 25 26 27 28 30 32 33 34 36 37 35 34 32 32 34 35 36 36 35 35 35 35 35 35 34 34 33 31 30 28 27 27 26 26 25 25 25 25 25 25 24 23
10 11 13 15 16 17 18 19 20 20 21 22 24 26 28 30 32 33 33 34 36 38 38 37 37 36 37 39 40 41 43 44 43 41 37 34 32 30 29 28 26 26 25 25 25 24 24 24 24 24 23 23 22 22
10 11 13 15 17 19 20 20 21 21 22 23 24 26 30 32 33 34 35 34 36 38 38 40 41 40 40 42 44 47 48 45 39 33 30 28 27 26 24 23 23 22 22 22 23 23 23 22 22 21 21 21 21 21
14 15 16 18 20 22 23 23 22 22 23 24 26 29 32 32 33 36 36 35 37 39 40 42 43 43 43 44 47 48 43 34 28 26 24 23 23 23 23 22 21 22 23 22 22 21 21 21 22 21 21 21 21 21

GFSWCAN_500_spd_033.txt.gz
Wind_Speed
42 45 39 39 41 42 39 37 32 32 40 45 50 55 49 40 38 42 38 36 33 34 32 29 20 11 7 3 3 5 4 4 9 13 19 26 25 28 34 38 50 73 86 95 97 97 95 88 83 82 77 71 67 65
41 43 38 38 39 41 41 36 30 29 37 44 47 51 54 48 43 43 39 35 32 32 30 24 24 16 10 6 5 6 3 0 4 7 9 10 13 12 16 21 37 54 71 82 96 101 94 94 91 83 82 78 74 70
40 43 35 35 38 42 41 35 29 28 34 42 46 48 50 48 49 49 36 32 31 30 32 27 20 18 18 16 14 11 10 7 7 2 1 3 7 7 6 14 21 30 43 67 83 96 97 97 93 92 89 83 77 75
40 41 35 35 38 40 41 36 31 28 29 38 44 47 52 45 42 42 30 28 25 23 25 27 26 24 23 21 19 19 16 15 13 12 10 7 4 2 3 8 10 16 28 42 62 79 85 95 96 95 91 86 83 76
40 37 36 35 36 39 38 36 31 26 26 32 41 44 48 42 32 34 27 22 19 19 18 20 20 21 20 20 18 16 13 12 14 17 18 15 15 15 10 12 4 20 24 24 31 50 74 77 82 94 92 88 81 77
40 37 38 35 34 37 36 35 28 25 23 28 37 41 40 35 33 30 27 30 28 24 17 13 17 15 17 15 13 11 16 19 24 24 22 15 14 17 13 9 14 22 25 19 15 30 55 62 72 75 85 84 79 78
36 38 38 37 35 34 33 31 25 18 20 27 34 38 35 31 29 22 27 31 29 27 23 20 18 20 21 22 24 24 26 25 25 24 27 22 16 26 26 22 13 15 31 29 25 26 48 52 52 57 57 57 63 61
34 37 38 37 36 33 31 30 21 14 17 25 31 34 34 29 19 23 20 20 23 25 26 25 24 25 25 26 26 24 27 31 33 33 30 31 33 29 25 21 17 12 16 20 28 24 45 49 43 37 44 43 42 46
33 37 38 36 35 33 31 25 16 14 15 23 28 32 32 22 13 23 20 17 19 20 20 21 23 26 27 29 30 30 37 40 35 35 35 32 34 24 22 22 25 18 17 24 28 40 42 40 37 37 44 58 53 54
33 35 36 37 36 32 27 18 12 11 16 24 28 27 17 15 16 12 19 17 17 20 21 22 23 25 27 38 39 40 44 47 48 49 42 32 34 16 19 21 19 15 18 38 35 39 30 20 30 39 46 60 59 59
31 33 38 38 32 28 22 13 12 13 19 26 27 15 16 18 17 26 30 28 27 25 25 25 25 27 27 32 35 36 42 44 47 46 48 46 37 26 16 19 23 17 6 8 11 9 19 21 30 22 42 36 49 59
29 35 39 37 27 23 18 15 14 17 22 25 17 13 21 25 29 29 28 27 28 27 27 27 29 31 33 34 40 39 39 43 42 37 41 46 49 39 22 14 16 14 9 5 15 16 8 16 18 33 53 41 36 52
28 33 38 32 24 22 20 18 20 22 26 24 16 19 27 29 27 26 27 25 23 20 22 21 28 30 31 29 32 35 36 38 38 46 44 35 33 33 37 28 19 13 7 11 15 19 2 8 21 19 30 46 44 36
26 31 35 31 23 19 17 16 26 31 26 18 11 25 25 20 21 24 23 21 23 22 19 18 22 23 22 24 23 29 32 33 33 35 37 37 28 23 26 33 31 25 21 25 28 26 20 22 16 21 21 12 16 27
22 27 28 26 22 15 15 21 29 27 21 15 15 25 26 24 20 18 18 21 23 25 21 19 16 16 16 14 20 24 29 27 25 25 26 29 36 34 25 21 26 31 28 28 29 25 24 20 25 18 13 9 11 12
18 20 23 21 20 16 19 26 27 25 18 19 22 23 23 22 21 19 18 15 14 15 19 20 21 19 20 20 18 18 19 22 21 21 24 24 25 26 27 26 20 15 15 19 27 23 15 12 15 20 22 22 23 22
15 15 17 20 20 18 21 24 22 20 22 23 24 23 21 19 18 18 16 16 17 17 12 12 14 14 17 17 18 18 17 17 18 18 17 18 19 18 16 17 19 20 19 14 7 7 5 5 6 6 5 5 6 7
12 12 13 14 14 15 18 18 17 20 21 18 17 21 22 20 20 20 19 19 20 19 18 16 17 19 19 20 20 17 16 15 13 12 12 13 13 14 14 12 12 11 10 11 12 14 14 13 12 11 8 5 7 9
13 12 12 12 11 13 15 16 17 18 18 20 21 22 23 22 21 21 21 22 23 24 24 22 21 21 21 19 17 16 16 14 13 14 15 13 12 12 12 13 14 14 13 10 9 9 10 10 11 11 10 10 12 12
12 14 13 11 11 13 15 17 16 17 20 21 23 23 23 23 23 23 24 25 25 24 24 22 21 21 19 19 20 19 19 19 19 18 18 19 20 20 19 18 16 16 17 18 18 17 15 14 16 18 17 17 18 20
11 13 14 11 9 12 15 16 17 19 21 22 23 23 24 25 26 26 26 24 25 24 22 23 24 22 20 17 14 15 17 21 23 24 26 27 27 28 29 29 29 28 28 26 26 28 29 29 28 27 26 27 28 28
10 9 8 10 11 12 14 15 17 19 20 23 24 25 25 25 26 27 28 27 24 24 24 24 23 22 21 21 22 20 19 18 18 18 19 21 23 25 27 29 31 32 32 33 34 33 33 33 34 34 34 34 35 36
6 6 5 8 9 11 13 15 17 19 21 22 24 26 26 26 27 29 30 30 29 28 28 27 26 24 23 23 23 23 23 23 22 22 21 21 21 21 20 19 19 19 21 23 26 28 28 28 28 29 29 30 30 30
5 4 6 9 9 9 11 14 16 18 21 22 23 24 25 26 27 29 32 32 30 29 28 25 25 25 25 25 25 25 25 26 25 25 24 23 22 23 22 22 22 22 22 22 22 23 25 27 26 26 26 25 26 26
8 6 8 11 12 13 15 17 19 20 21 21 22 22 24 26 27 29 32 34 32 30 29 26 24 25 26 27 27 26 25 26 26 26 27 27 26 25 24 24 24 25 27 27 28 27 26 26 27 28 28 28 28 29
9 10 10 12 14 16 17 18 19 20 21 21 21 20 22 26 27 30 32 33 34 34 32 31 29 27 26 26 26 25 25 25 25 25 26 26 26 25 26 26 27 26 26 26 26 26 26 25 26 27 27 28 28 29
9 11 12 13 15 16 18 19 19 20 20 21 21 22 26 28 31 31 32 31 31 32 32 31 30 30 28 28 28 28 28 27 27 27 27 27 28 28 27 28 28 28 28 28 28 28 27 27 26 26 25 25 26 27
9 11 13 14 16 17 18 19 20 20 21 23 24 25 28 31 32 33 33 31 30 30 30 31 30 30 30 30 31 32 31 32 33 33 33 32 32 32 32 32 31 30 30 30 29 28 27 27 27 27 27 26 26 26
10 12 13 15 16 17 19 21 23 24 25 26 27 28 29 30 32 35 35 35 35 33 33 34 32 34 34 34 34 36 37 39 41 42 39 35 33 31 30 29 28 28 27 27 26 26 25 25 25 25 25 25 25 25
14 16 17 18 18 19 20 21 22 24 25 26 25 26 28 29 31 33 34 37 37 36 35 35 36 37 38 38 39 41 42 44 43 37 29 24 22 22 21 22 22 21 21 21 21 21 21 22 22 22 22 22 22 22
14 15 16 17 18 20 21 22 23 23 24 25 24 24 26 29 31 33 33 36 37 38 38 38 39 40 41 42 44 45 45 43 35 28 23 19 18 17 18 18 19 20 20 20 20 20 20 20 20 20 19 20 20 20
13 15 16 16 17 18 20 21 22 22 23 23 24 25 27 30 32 31 31 35 38 39 40 41 41 43 44 45 46 46 40 34 29 25 22 21 20 21 21 21 22 24 24 23 22 21 21 20 20 20 20 20 20 19
14 15 16 17 17 19 21 23 22 21 22 24 26 27 30 32 33 33 35 38 38 40 41 41 43 46 46 47 46 41 34 31 29 28 26 26 26 26 25 25 27 27 26 24 23 22 22 21 20 19 18 17 16 16

GFSWCAN_500_spd_036.txt.gz
Wind_Speed
42 40 40 38 36 39 42 42 42 39 33 32 38 44 50 54 52 46 37 34 33 30 30 26 25 22 15 11 9 8 6 4 2 6 12 20 21 27 42 47 65 84 88 85 86 87 88 84 84 83 74 76 73 69
40 39 41 38 38 39 40 41 42 40 38 32 36 42 48 49 48 44 33 30 25 30 31 29 25 20 17 13 12 9 6 5 3 2 5 10 14 18 23 33 48 62 81 92 92 93 87 89 88 84 81 81 73 70
37 40 39 37 42 39 38 39 41 37 35 28 32 40 45 45 45 37 23 24 22 25 26 25 25 24 20 17 14 13 13 11 9 7 6 8 9 4 4 18 28 44 58 80 91 94 93 92 88 85 84 78 78 73
35 39 36 40 41 39 38 38 36 34 30 26 31 37 41 37 34 26 26 24 24 22 25 25 25 25 25 21 19 16 17 15 18 17 15 13 10 5 1 4 5 19 34 49 67 84 91 94 92 90 85 85 81 75
36 37 36 40 41 39 36 36 32 33 25 24 30 36 36 27 26 26 26 27 27 26 27 28 29 27 26 26 28 28 30 29 29 26 23 19 16 12 7 11 9 18 21 35 50 62 80 90 95 92 90 87 82 79
35 35 38 40 39 38 36 34 30 27 21 23 30 35 30 21 26 26 23 25 25 26 27 34 34 34 35 34 33 34 35 36 36 31 28 18 11 18 25 13 16 25 25 23 23 32 58 71 83 90 90 86 82 80
35 35 39 39 40 37 35 31 24 21 16 23 31 32 23 21 24 25 18 17 20 26 30 30 32 31 30 29 32 44 48 47 45 47 41 35 36 30 25 20 13 13 22 32 24 32 44 57 68 82 89 83 81 78
33 35 38 41 38 36 32 22 19 16 18 26 30 24 25 23 21 24 21 17 19 22 25 27 28 30 34 32 37 43 45 49 50 51 44 34 29 23 19 30 27 26 25 27 31 24 27 41 61 73 71 79 81 74
31 35 39 37 33 30 26 21 18 19 24 25 20 23 27 22 18 20 16 18 19 19 26 30 29 32 35 37 39 41 46 53 53 53 45 34 26 26 26 24 21 34 23 4 21 29 28 18 42 60 58 56 57 65
29 35 36 30 27 26 25 23 25 25 23 15 18 22 19 27 27 20 19 22 24 24 22 24 22 28 27 26 30 36 41 41 44 47 46 37 32 19 17 14 19 24 28 21 7 17 26 25 25 36 41 38 30 24
28 33 29 24 25 25 26 30 26 26 26 19 17 17 21 20 14 20 27 27 27 25 24 27 27 23 25 28 31 37 38 36 37 41 40 38 29 28 23 21 20 25 21 12 17 36 30 29 35 50 49 30 34 41
25 29 19 20 24 27 29 28 23 24 28 20 17 17 16 14 17 22 25 22 22 24 25 27 26 25 26 28 29 34 38 39 37 32 33 37 37 29 29 28 24 19 20 16 23 14 20 29 46 41 33 35 44 52
21 25 15 15 20 22 22 26 29 30 31 31 18 11 16 21 20 18 21 21 17 18 19 25 25 22 24 27 30 34 36 38 36 39 39 30 31 30 32 33 20 20 28 28 27 24 24 32 35 25 32 36 36 26
16 19 20 16 20 19 20 23 26 29 28 19 16 15 19 23 23 23 19 18 17 9 9 16 19 19 22 27 24 28 29 30 32 36 38 38 32 29 28 31 30 31 32 38 32 25 25 26 24 20 20 31 23 23
12 15 17 16 16 17 19 19 19 27 23 15 12 13 15 16 15 17 17 15 16 15 15 15 16 17 20 22 21 25 26 25 26 27 25 25 31 34 31 22 26 24 23 25 27 29 31 27 23 25 28 25 32 26
9 10 13 15 17 19 19 21 23 24 20 19 22 24 22 19 18 18 18 18 18 17 18 18 16 15 16 18 21 21 22 22 21 19 20 21 21 20 25 28 18 14 15 16 15 13 15 18 23 28 27 25 25 25
10 9 10 12 14 16 16 18 20 18 20 20 20 20 19 17 16 16 17 17 17 16 17 17 17 15 16 18 21 21 20 20 21 20 19 18 18 17 16 15 14 18 20 19 11 10 8 7 5 6 10 14 17 17
12 12 10 10 11 15 19 18 16 18 19 21 23 23 22 21 20 19 18 17 16 16 16 15 17 18 19 19 19 20 20 19 18 19 21 19 17 17 16 14 13 12 10 8 10 14 18 17 15 15 14 10 8 5
11 14 13 10 10 14 14 14 17 19 20 22 24 24 25 25 25 24 22 21 21 20 19 20 19 19 18 18 18 19 20 22 24 24 22 23 22 20 20 20 18 16 14 13 12 10 8 9 10 10 9 9 10 11
10 12 12 9 9 10 12 14 16 19 20 21 22 23 23 24 26 28 28 26 25 25 23 20 19 18 18 19 20 20 20 20 20 22 25 25 26 26 26 25 25 24 23 23 22 22 21 19 18 18 18 18 18 18
9 9 7 7 7 9 11 12 15 17 19 21 23 23 24 25 26 29 31 30 26 23 23 22 18 17 18 18 19 19 19 20 21 21 22 23 23 24 26 27 27 28 27 27 27 26 26 27 28 28 28 28 28 28
7 5 3 4 4 6 9 11 14 17 19 21 22 23 24 25 26 28 30 30 30 29 27 25 21 19 19 20 20 20 20 20 21 21 21 20 19 20 21 22 23 22 22 23 23 24 24 24 24 25 27 29 31 32
4 2 3 5 5 7 10 14 17 19 21 20 21 21 22 24 25 26 27 28 29 30 29 26 24 23 22 23 24 24 23 22 21 20 21 22 22 21 19 17 17 19 21 22 23 22 23 23 23 23 24 24 26 27
5 4 5 9 10 11 14 16 18 19 20 20 20 19 20 23 26 26 27 27 27 27 28 29 27 27 24 23 24 26 27 27 26 25 24 24 24 24 24 24 22 21 20 19 20 22 24 25 26 27 27 28 28 29
8 8 9 11 13 15 17 19 18 19 19 20 20 19 20 22 25 27 29 29 30 30 31 31 31 30 28 27 27 27 28 28 29 29 28 28 28 28 27 27 26 26 25 24 23 22 21 21 22 23 26 28 29 30
10 11 12 14 15 17 18 18 18 19 19 19 19 20 22 24 26 26 29 29 31 34 34 34 32 33 31 31 31 30 30 30 30 30 31 32 33 33 33 32 32 31 30 29 28 28 27 26 25 25 25 24 25 26
10 12 13 14 15 16 17 18 19 20 22 21 23 23 25 26 27 28 30 29 32 34 34 34 31 31 32 32 32 32 33 33 34 34 35 36 36 35 33 33 33 33 32 31 30 29 29 28 28 27 27 26 26 26
10 12 13 14 15 17 18 20 20 21 21 23 25 26 26 28 29 30 31 32 32 34 36 35 33 33 34 34 36 37 37 37 38 38 36 32 28 24 21 20 21 22 23 23 24 25 25 25 25 25 25 25 25 25
10 12 13 14 16 18 20 22 25 26 26 26 26 27 29 29 31 33 32 33 34 37 37 35 35 36 36 38 38 39 41 40 38 34 30 27 23 18 17 16 16 16 16 16 17 19 19 20 20 20 21 21 22 22
12 14 15 17 18 19 20 23 24 26 25 25 24 24 26 29 32 34 33 30 33 37 36 36 38 38 39 41 43 42 38 37 33 31 28 27 23 21 21 20 19 19 20 20 20 20 21 20 20 20 20 19 19 18
14 16 17 18 19 19 20 22 23 24 24 23 25 26 28 29 31 34 34 33 36 36 35 40 37 39 41 43 42 40 39 35 32 30 29 28 26 25 24 24 24 23 23 24 25 25 23 22 21 19 19 18 17 16
14 16 18 18 18 18 19 20 22 22 23 26 28 30 31 32 32 33 32 34 36 35 40 39 40 41 42 41 38 39 37 35 32 30 28 26 25 25 25 25 26 27 27 26 25 23 21 21 21 20 19 19 18 17
13 15 17 18 17 17 18 20 21 21 24 27 29 32 32 33 34 34 33 35 37 39 39 39 40 41 41 37 38 38 37 35 33 31 29 28 27 27 26 26 25 25 24 23 22 21 20 19 17 16 15 15 14 13

GFSWCAN_500_spd_042.txt.gz
Wind_Speed
47 41 28 31 39 42 42 42 39 36 34 27 19 21 27 26 25 30 32 38 37 36 37 35 34 32 28 22 14 5 4 5 10 12 23 27 24 29 37 20 26 39 48 56 62 62 46 30 45 48 50 52 64 72
48 28 30 36 40 42 44 39 34 29 23 19 16 22 26 19 23 26 30 33 32 35 31 27 32 32 30 27 21 23 15 7 9 13 19 22 27 19 40 35 17 23 37 47 52 68 59 38 46 56 61 60 59 62
29 25 31 35 40 39 34 33 28 22 17 15 21 25 23 14 23 24 28 31 31 32 22 23 28 24 27 26 27 26 26 22 13 16 13 17 20 28 37 47 33 37 36 44 55 60 72 48 48 54 59 65 70 75
23 26 32 36 32 29 26 25 22 21 21 22 23 21 15 15 21 23 26 30 31 29 15 26 27 21 21 25 26 26 25 23 19 16 17 16 10 4 19 37 55 57 58 65 74 71 71 78 76 72 68 70 71 70
20 26 31 25 22 25 24 23 26 27 25 23 19 17 12 14 18 20 26 28 29 26 20 28 31 29 31 30 31 33 36 34 29 24 21 20 23 11 5 6 23 50 57 71 78 80 82 84 85 85 84 82 78 73
19 25 19 19 22 24 28 30 25 22 22 22 19 13 11 12 15 20 21 27 30 24 26 25 25 25 33 34 38 37 38 38 39 39 37 29 24 11 7 12 12 25 37 58 66 72 84 83 82 83 85 84 81 79
19 16 18 18 21 24 27 28 24 22 21 22 22 19 17 13 15 17 20 29 26 28 33 32 30 28 32 34 36 37 37 36 35 33 31 29 29 30 23 9 12 2 6 14 21 36 58 69 82 84 84 84 83 79
16 9 16 18 24 28 29 26 22 22 19 19 19 22 23 21 21 19 20 21 22 24 26 37 39 33 30 30 29 32 34 37 37 35 33 35 35 33 28 22 13 10 12 14 15 20 25 51 68 78 88 90 87 83
14 7 14 14 20 26 27 25 17 18 19 22 18 19 25 20 17 19 20 20 20 21 26 31 32 34 34 33 36 31 30 33 39 39 35 38 40 37 21 17 20 15 13 17 26 33 28 41 59 62 66 77 86 84
13 11 10 14 18 20 21 25 19 17 15 21 20 24 21 21 15 16 18 20 20 22 22 25 28 28 28 30 29 26 32 33 30 35 40 44 41 34 34 31 32 23 22 19 13 12 13 37 54 52 59 61 69 83
13 16 10 13 16 19 22 23 21 17 16 16 19 22 24 21 16 11 9 12 17 22 19 24 24 25 25 25 28 27 26 29 32 31 23 24 32 34 37 36 25 20 18 23 16 10 12 13 16 25 30 34 53 66
12 15 14 13 16 18 21 24 21 15 12 15 19 21 20 16 13 9 10 13 16 17 18 21 19 25 25 24 23 22 21 22 26 24 25 25 24 30 31 32 35 28 17 19 17 20 11 11 17 17 16 11 15 38
10 11 14 13 15 16 17 18 17 15 14 16 19 16 13 11 10 10 12 14 15 15 15 17 20 10 20 20 20 18 21 22 22 23 24 26 30 30 26 29 27 29 26 21 19 20 15 11 18 12 21 17 9 4
9 9 11 13 13 14 15 17 17 15 13 14 15 14 14 14 14 13 14 16 17 18 18 18 16 17 23 23 22 21 20 18 19 19 20 21 21 21 24 26 24 22 21 23 21 20 19 16 14 9 21 21 19 32
9 10 12 13 14 16 17 16 14 13 19 19 17 16 17 16 17 17 18 18 19 19 19 19 21 20 20 19 18 20 21 22 21 21 19 19 18 18 17 17 20 25 25 19 17 18 15 14 14 14 14 21 26 25
9 13 13 12 13 14 14 13 13 17 18 18 18 20 20 21 20 20 20 20 20 20 21 21 20 21 20 21 21 21 20 22 22 21 22 22 23 21 19 19 15 15 19 22 24 19 16 15 10 7 12 14 19 26
10 14 14 11 9 10 10 12 15 17 17 17 18 20 20 21 22 23 24 24 24 23 21 21 21 19 20 21 22 22 21 20 21 22 20 21 22 22 21 19 19 16 14 11 10 16 18 20 18 9 10 8 9 15
10 11 11 9 7 8 10 11 13 15 17 19 19 18 18 19 21 22 22 23 24 25 24 24 23 22 22 22 23 24 23 23 21 21 22 22 22 24 23 22 19 17 18 18 15 9 6 8 10 12 13 11 5 3
9 8 9 7 7 7 9 10 13 15 18 19 19 18 18 18 20 21 22 22 22 23 24 26 26 27 27 27 27 26 26 24 24 22 22 22 20 20 21 22 22 22 18 17 19 18 17 15 15 13 9 8 8 7
9 9 8 9 8 9 10 12 15 18 21 22 20 19 19 18 18 21 23 23 23 23 23 24 25 26 27 28 29 29 28 27 25 24 22 22 23 24 23 23 23 23 22 21 19 21 21 20 17 19 20 17 17 18
10 10 8 9 11 12 14 17 20 21 22 21 19 18 18 18 19 21 23 24 24 25 24 26 25 25 27 28 29 30 29 27 27 27 26 23 22 22 23 24 23 24 24 23 22 20 22 24 22 18 20 22 21 23
7 9 7 9 11 13 15 17 19 20 20 20 20 21 21 22 23 24 25 22 23 24 24 25 25 27 28 29 30 31 32 29 27 26 26 27 27 27 26 25 25 24 24 24 25 24 22 24 24 23 20 20 19 22
6 8 8 10 12 14 16 17 18 19 20 21 21 21 23 24 23 24 25 25 26 25 25 25 26 27 28 29 25 28 29 29 30 30 30 30 31 31 31 30 30 27 27 27 27 27 26 24 25 25 24 23 23 22
7 8 9 11 13 14 16 17 19 20 22 23 23 23 22 23 24 25 26 28 29 30 30 28 29 34 36 37 35 33 32 33 34 35 34 34 33 32 32 32 33 32 31 32 31 29 28 29 28 28 26 27 26 25
7 9 10 12 13 15 17 18 20 22 24 24 23 22 22 23 25 27 27 31 32 33 28 32 36 38 36 33 35 36 36 37 38 36 33 32 32 31 30 31 32 27 28 28 29 30 29 28 29 30 30 29 30 30
7 9 11 13 15 16 18 19 20 22 20 22 27 28 29 30 28 34 34 33 33 32 33 34 34 34 28 35 35 35 36 36 33 33 32 30 29 28 27 26 27 25 22 19 18 18 19 21 22 23 27 27 28 29
9 11 12 14 16 17 15 14 18 22 17 8 29 30 28 27 30 23 35 38 35 35 34 37 36 34 35 35 36 38 38 31 29 29 29 28 27 26 25 25 24 23 22 19 17 15 13 13 13 14 14 16 19 22
9 10 12 14 16 19 18 16 13 24 23 22 27 30 32 34 29 20 35 36 37 37 40 37 35 37 37 37 37 32 26 31 33 32 33 31 29 26 25 25 24 23 22 22 20 19 18 17 16 15 15 16 16 16
11 13 14 14 15 16 19 24 22 28 26 25 27 29 29 35 29 17 39 39 39 39 39 41 41 39 39 39 37 34 35 34 34 34 33 31 30 29 28 27 26 25 24 21 21 23 22 21 21 21 21 20 20 20
10 10 11 13 14 14 17 17 19 24 25 25 25 28 31 31 29 25 29 38 39 40 41 40 38 38 38 34 32 34 36 36 34 35 33 33 31 30 29 28 26 25 24 25 24 21 23 24 24 24 23 23 22 21
11 11 13 14 13 11 14 15 20 25 27 25 27 29 31 34 30 32 35 39 39 38 36 37 38 37 36 33 33 33 35 35 34 33 32 32 31 31 30 27 26 25 24 23 23 22 21 20 18 17 17 17 17 16
11 9 13 15 15 17 18 19 23 25 27 28 23 24 36 31 33 36 37 38 40 40 39 39 38 35 32 35 35 33 33 33 34 34 32 31 31 30 29 29 29 28 26 23 21 19 18 17 16 15 14 13 12 12
12 11 12 12 15 17 19 21 24 25 26 30 18 20 34 29 38 38 36 37 37 36 37 36 33 31 34 33 34 34 31 34 35 33 31 29 28 29 29 30 30 28 25 21 18 15 13 12 11 11 10 9 9 8

GFSWCAN_500_spd_045.txt.gz
Wind_Speed
50 50 31 28 34 37 32 29 28 25 21 20 20 23 23 20 26 30 33 34 35 32 29 37 24 18 22 26 29 27 7 8 8 13 21 20 28 21 18 17 24 35 59 64 60 74 56 61 59 67 66 63 62 64
49 45 26 29 30 25 23 25 27 24 24 26 24 19 19 19 25 30 29 32 33 34 36 37 31 24 17 18 22 27 24 8 6 8 18 15 36 27 23 25 25 29 46 67 67 56 71 52 63 76 71 71 69 67
45 23 25 24 19 20 23 26 25 25 26 22 17 17 18 20 26 25 29 31 33 31 34 34 35 31 25 19 17 18 18 19 13 8 9 12 21 31 30 23 28 29 39 58 71 63 69 53 55 66 79 76 73 69
30 19 21 14 18 21 24 26 23 21 23 23 19 15 17 21 22 21 29 34 33 29 34 36 31 31 29 26 23 20 21 21 21 22 18 14 16 20 26 34 27 35 43 59 61 63 71 54 42 52 62 71 69 73
15 16 11 14 19 19 25 24 18 21 26 25 20 18 19 21 17 25 27 31 36 34 34 36 32 35 34 34 31 29 30 33 32 28 23 18 12 8 24 36 45 45 39 46 65 60 66 67 51 40 53 60 69 75
11 7 14 14 18 21 25 19 15 19 23 23 24 25 24 20 17 23 24 26 32 37 33 39 37 37 33 35 37 35 32 29 29 31 31 27 17 16 10 23 43 53 63 63 61 57 69 64 69 60 46 62 65 68
11 5 10 15 19 23 23 17 17 19 19 18 21 20 20 21 18 20 22 26 30 30 28 27 33 36 34 31 34 34 35 35 36 34 30 27 26 21 20 15 5 9 27 44 64 69 70 68 67 65 73 55 58 63
10 5 9 13 17 20 26 19 17 18 17 15 15 19 17 17 16 20 22 22 23 23 25 28 32 30 28 29 31 36 33 35 35 37 37 35 31 30 29 24 15 9 2 12 19 37 57 69 77 79 77 78 78 69
11 8 8 10 16 18 19 18 19 17 13 10 12 13 16 13 11 13 16 20 21 19 23 24 26 28 29 29 28 25 29 26 28 29 31 36 38 36 26 22 16 11 12 6 10 19 25 33 46 65 79 87 84 84
12 15 10 11 15 20 19 17 18 19 14 11 10 11 16 13 9 9 12 15 19 21 21 25 23 26 27 26 26 24 21 24 26 24 28 28 31 27 21 19 21 19 19 19 9 11 20 33 44 51 57 73 84 89
12 13 16 12 13 14 16 19 19 18 15 13 11 9 11 13 12 12 14 17 18 18 18 20 20 25 20 23 23 22 20 20 22 23 21 19 21 19 25 24 19 19 20 19 21 18 17 13 20 49 57 60 66 74
11 11 12 13 14 15 16 17 18 17 17 16 15 15 19 18 17 15 16 17 18 18 20 19 21 20 16 25 21 22 19 19 21 18 17 17 19 19 17 20 18 14 15 16 17 20 21 13 11 5 6 27 46 58
11 10 11 13 15 17 21 21 18 18 19 18 17 16 16 16 16 17 18 18 19 20 19 20 19 19 21 23 19 17 15 18 19 18 17 16 16 16 16 18 21 16 12 17 14 11 8 11 9 5 1 6 12 17
11 11 12 13 15 16 18 17 16 15 17 19 20 20 19 18 21 21 21 20 19 19 18 18 17 18 17 18 20 19 19 18 20 19 19 17 14 15 14 13 17 18 19 13 10 10 7 3 5 8 11 10 5 8
9 12 15 12 12 14 13 12 15 16 17 17 18 18 20 21 22 23 22 22 22 23 21 18 20 21 20 18 18 19 20 20 21 21 21 21 21 17 15 16 12 12 17 18 18 12 8 5 2 5 11 15 18 27
10 13 15 12 10 10 10 13 14 16 17 19 19 19 18 19 19 20 21 21 21 22 23 23 22 19 18 18 19 19 20 20 20 21 22 22 21 20 19 18 17 15 12 11 14 15 18 11 7 5 5 7 22 23
10 12 12 12 9 10 11 11 12 15 17 18 20 19 19 18 19 20 21 22 21 21 22 22 22 23 24 24 22 23 23 23 23 23 23 22 22 21 20 18 17 17 17 15 12 12 11 11 19 16 7 9 12 16
9 10 10 11 10 11 12 12 14 17 20 22 22 19 19 19 19 20 22 23 23 23 23 23 23 23 23 24 26 26 27 26 25 25 23 23 22 21 20 18 16 15 17 17 16 14 13 13 11 10 14 17 9 5
8 9 10 10 11 12 13 15 18 20 21 22 20 20 20 19 19 21 23 24 23 23 22 23 24 22 22 24 25 26 27 29 27 27 27 26 26 24 22 21 20 18 16 17 18 15 16 16 15 13 12 12 9 12
9 11 12 10 11 14 15 17 20 21 21 21 20 20 18 18 19 20 22 23 23 22 22 23 22 23 24 25 27 28 27 29 29 28 28 27 27 27 26 25 24 22 20 18 17 19 17 15 14 16 14 14 16 14
9 9 11 9 11 14 16 17 18 19 20 20 20 18 18 19 19 20 22 25 25 26 26 26 25 23 24 28 29 30 28 30 31 29 28 27 28 28 28 27 27 27 26 23 20 17 20 20 18 17 16 15 20 17
5 8 10 9 11 14 15 17 19 19 19 19 19 20 20 18 18 18 20 22 24 26 28 30 28 27 30 31 31 26 28 30 30 30 30 31 32 31 30 29 29 28 27 28 27 22 21 21 22 21 22 18 17 20
6 8 9 10 12 13 15 15 15 16 17 17 16 16 18 19 19 22 21 23 27 27 28 29 30 31 32 35 34 26 32 30 30 32 32 30 29 29 29 28 27 23 25 27 28 27 22 22 24 23 26 24 23 19
7 9 9 11 12 13 15 16 16 17 18 15 19 24 26 18 10 18 32 29 38 35 34 36 36 38 40 37 37 36 35 35 35 34 28 29 28 29 28 28 26 21 23 24 25 25 26 23 23 24 27 27 26 24
7 9 11 13 14 15 16 19 21 15 15 11 13 29 33 32 32 32 16 15 34 35 36 36 37 37 37 36 36 36 35 35 33 29 29 29 29 29 28 28 24 22 23 23 22 22 22 24 22 20 23 26 27 26
8 10 11 12 13 14 15 14 17 24 15 27 18 26 30 34 40 34 24 17 29 35 39 38 42 42 40 39 38 39 37 31 29 30 30 30 30 30 28 26 26 25 24 24 23 22 21 20 19 16 14 15 19 22
7 8 9 13 15 17 16 19 8 19 29 32 29 27 29 33 33 35 26 21 24 48 48 45 42 42 40 40 39 35 29 28 31 31 29 29 27 24 25 25 24 25 25 23 24 21 21 20 18 17 15 13 11 11
9 11 12 12 15 21 19 24 26 26 29 27 27 29 30 31 32 33 35 35 30 44 46 45 42 42 43 40 35 35 35 35 35 35 36 33 31 28 27 27 25 23 23 24 24 23 22 22 21 21 20 18 17 16
11 9 10 11 13 11 14 21 27 24 31 33 29 23 25 24 25 32 36 37 38 42 44 44 42 42 40 35 36 38 38 36 35 35 35 35 33 31 29 27 27 27 25 21 21 21 23 23 21 20 19 19 18 18
8 8 8 11 12 15 14 16 18 24 31 36 37 23 10 22 30 26 48 45 42 41 40 40 40 38 36 36 35 36 37 34 33 35 36 33 30 29 27 27 27 27 27 26 24 22 20 19 20 19 19 18 19 18
13 11 10 13 15 13 14 17 19 18 28 31 38 29 13 38 25 37 47 47 48 44 42 42 37 34 35 35 34 35 36 36 35 32 30 28 27 28 29 29 29 28 27 24 22 19 18 15 14 14 15 14 14 13
13 11 12 13 12 14 13 16 18 23 28 26 22 25 32 37 39 42 41 42 42 41 40 36 31 33 36 37 34 34 35 35 33 30 27 28 29 27 29 32 30 28 26 22 18 14 11 9 9 8 9 9 9 8
14 10 12 14 14 15 16 19 23 26 29 28 26 27 30 30 35 37 40 38 36 38 35 29 28 30 37 36 33 31 30 31 32 32 30 30 27 25 29 32 32 30 27 24 19 14 8 4 1 1 3 3 3 2

GFSWCAN_500_spd_048.txt.gz
Wind_Speed
52 47 36 21 22 16 19 23 25 27 28 24 20 19 21 23 24 28 30 34 33 38 42 40 40 41 36 30 22 23 14 11 3 7 26 26 28 23 16 11 39 60 62 74 75 78 66 73 58 55 60 64 58 58
51 38 20 19 16 19 21 23 24 25 24 20 16 18 20 21 22 23 29 30 33 35 43 44 45 47 41 34 28 20 16 9 5 2 20 27 30 27 18 16 24 41 61 69 73 84 71 69 70 50 69 66 58 59
39 18 20 16 18 21 21 21 21 22 23 20 19 19 19 18 21 22 30 32 35 39 42 44 49 55 50 46 33 27 20 10 7 8 16 21 26 23 15 7 10 39 58 63 65 78 72 59 67 55 61 74 66 64
15 15 13 18 19 18 19 17 18 23 22 23 23 22 17 17 19 21 27 28 33 39 41 42 47 52 53 52 44 38 29 21 12 13 15 19 14 16 13 4 0 8 27 54 70 71 77 56 55 63 57 69 72 72
15 11 16 14 16 17 18 17 20 19 21 23 21 19 15 16 17 22 27 28 33 35 35 39 41 45 48 48 47 43 37 34 27 24 15 13 6 15 24 20 16 12 22 45 62 70 71 70 50 50 60 62 70 73
14 9 12 13 17 19 16 16 19 22 21 18 21 16 16 15 17 16 21 25 29 29 32 35 36 36 36 40 39 38 43 37 30 24 23 26 20 7 21 33 32 31 27 34 51 61 65 57 69 69 59 66 59 73
14 10 11 12 17 20 22 18 20 22 19 17 17 16 13 11 10 15 18 22 23 24 26 28 33 33 32 28 32 33 33 34 36 33 26 21 17 14 5 10 34 40 40 41 40 46 63 66 53 59 57 49 69 70
14 16 11 11 15 18 23 19 18 19 17 16 16 13 11 9 8 13 18 21 22 21 24 24 29 31 27 26 24 27 28 25 25 27 24 21 22 23 24 18 10 7 18 42 54 53 53 58 71 67 66 56 54 67
15 15 15 12 14 18 21 21 18 17 18 17 18 16 11 11 10 12 16 18 21 22 23 22 28 23 25 25 23 22 23 24 23 21 20 23 28 31 25 18 12 6 1 9 22 41 48 66 68 75 69 70 74 65
14 13 17 14 14 15 17 18 20 20 21 22 20 19 16 14 13 13 16 20 21 20 20 20 20 25 21 25 21 20 19 20 21 21 19 16 21 20 19 18 16 12 9 10 4 8 18 26 39 72 83 81 84 79
14 13 11 13 16 17 19 21 20 19 18 19 21 19 17 14 16 17 19 19 20 21 19 17 16 21 21 21 19 16 17 20 21 19 18 16 10 12 11 11 11 13 16 12 11 11 8 10 17 29 50 86 88 88
13 14 12 14 16 19 21 21 18 18 18 17 17 18 18 17 17 16 17 16 17 18 19 16 16 18 19 19 19 16 15 19 21 21 16 14 12 11 11 11 7 8 11 13 14 15 13 4 5 5 21 49 69 89
12 12 13 16 15 16 17 15 17 17 15 18 20 19 17 19 20 20 22 24 24 23 23 19 19 16 17 17 16 16 17 17 18 18 18 17 14 14 10 12 10 8 6 7 9 11 13 10 14 10 5 4 25 50
9 10 15 16 13 12 13 14 15 15 15 18 18 17 19 20 21 22 23 23 23 23 24 24 21 18 17 16 17 18 18 18 18 18 17 16 14 13 13 13 12 12 11 10 9 7 9 10 13 14 14 12 14 12
8 11 14 13 11 10 12 13 13 15 17 18 19 19 18 19 20 21 21 21 21 21 21 21 21 21 20 18 18 18 18 18 18 18 18 18 18 18 17 15 14 15 14 14 10 10 10 5 7 10 10 13 15 13
8 10 11 12 10 12 13 13 14 17 19 22 22 20 19 18 18 18 19 21 23 22 21 21 21 19 18 19 20 19 19 19 18 17 18 18 18 19 19 19 18 16 17 15 14 12 10 12 13 4 1 7 10 18
6 9 8 10 10 12 13 14 16 18 22 25 25 22 19 19 19 19 19 22 24 22 19 19 21 23 19 19 19 21 22 23 24 23 20 20 18 19 20 19 18 19 17 17 16 15 13 12 14 15 13 6 8 13
5 7 9 9 11 13 13 15 17 20 22 22 21 20 18 16 16 18 20 21 21 22 24 24 25 24 22 23 24 26 26 28 26 27 26 23 22 19 19 20 19 18 19 17 16 17 17 15 12 14 14 13 13 1
5 6 10 11 9 12 13 14 17 20 20 20 19 19 17 17 17 19 21 20 19 21 23 24 25 23 22 23 26 28 27 29 26 28 29 29 28 26 23 23 23 21 20 20 21 20 17 16 16 14 15 13 11 14
7 7 8 10 9 11 14 16 16 18 18 18 18 19 17 15 15 15 16 20 23 27 26 25 25 24 27 28 29 30 30 28 26 30 32 32 33 32 29 27 25 25 24 23 20 23 22 20 17 15 16 13 11 15
5 5 8 9 9 11 12 13 14 16 18 19 18 17 18 16 14 14 17 18 22 23 23 25 26 28 29 31 32 32 30 29 31 33 32 30 32 32 29 26 23 22 23 24 23 22 22 22 25 23 18 14 11 16
4 6 7 7 9 11 12 14 15 16 17 18 16 21 31 18 9 15 17 18 23 24 23 27 28 29 30 31 30 28 27 28 31 30 30 30 27 25 25 23 24 23 23 23 19 18 18 19 24 26 25 20 16 15
5 6 7 7 9 12 14 16 17 16 15 15 15 22 32 28 21 35 26 26 25 25 25 29 31 33 35 35 33 31 31 33 32 29 27 24 25 27 26 25 24 24 26 21 18 19 17 15 18 24 26 27 24 20
4 5 7 9 12 14 15 16 18 17 10 21 19 20 17 18 21 35 28 23 20 21 25 35 37 42 41 37 35 34 34 34 30 28 29 30 30 29 27 25 24 24 26 24 19 19 18 16 15 17 19 23 25 24
5 6 9 11 14 16 17 18 20 20 20 23 20 18 19 17 23 23 28 31 31 26 26 34 34 42 39 38 36 34 31 30 32 34 33 31 30 30 28 26 25 24 23 22 22 21 18 17 17 17 17 18 17 20
7 8 9 12 14 17 20 12 17 18 15 23 22 20 19 24 22 25 26 34 32 19 35 35 38 39 39 38 34 32 31 28 27 29 27 24 23 22 24 27 26 25 24 24 23 23 23 18 16 17 18 18 17 14
7 9 12 14 15 14 18 23 26 24 23 32 21 15 10 20 22 22 24 40 39 36 33 32 32 39 36 32 34 35 36 34 33 32 32 30 27 25 23 22 23 23 24 24 24 25 23 21 18 16 17 16 16 15
9 8 9 11 13 15 15 17 23 28 29 33 35 31 10 16 31 36 27 44 45 39 36 35 38 37 34 35 36 38 37 38 39 39 37 32 30 28 26 24 23 23 24 25 24 23 23 22 19 18 18 17 18 17
8 8 8 12 15 17 17 19 22 24 26 30 34 24 20 26 40 43 40 40 42 44 42 41 38 34 35 37 39 39 40 40 41 39 36 33 31 29 28 27 29 30 27 26 25 23 21 21 19 17 16 16 15 14
10 8 10 11 14 14 14 17 20 25 29 30 30 33 36 35 39 41 44 45 46 44 43 42 38 36 37 39 39 38 39 36 34 32 31 30 29 28 28 30 33 32 27 24 21 18 16 14 13 12 12 11 11 12
13 10 9 15 16 14 14 16 18 22 24 27 27 28 32 36 39 41 42 44 44 41 39 35 34 36 39 39 37 37 33 32 31 30 29 28 26 27 30 33 32 30 27 23 18 13 8 5 5 6 7 6 5 6
15 14 9 8 14 15 12 13 18 22 24 26 25 28 34 37 38 40 42 43 41 39 33 31 34 36 37 35 31 27 29 28 28 28 27 27 27 27 28 32 34 33 29 25 20 14 8 5 4 4 3 2 1 0
14 12 10 11 13 12 12 15 17 21 24 27 28 29 32 35 37 40 42 42 41 37 30 31 34 37 35 28 24 28 28 26 28 28 28 28 30 31 31 32 35 37 35 31 27 23 19 15 12 10 9 8 7 7